Retour au catalogue

ONEWEB-0344

ActifCommunicationsPO
NORAD 49210·PAYLOAD·🇬🇧 United Kingdom

Lancé Sep 14, 2021 depuis Baikonur Cosmodrome

Loading…

Prochains Passages (prochaines 24 heures)

TLE

FraisSource: CelesTrak SupGP

Époque: Sep 14, 2026, 15:36 UTC

1 49210C 21083AA  26257.65018935 -.00000847  00000+0 -23226-2 0  2573
2 49210  87.8919 302.4388 0001568 104.2470 358.3043 13.13473271    15

Suivez ONEWEB-0344 en temps réel avec AllMySat

Download on the App Store